Van Nuys, CA

6:20 PM PDT on April 23, 2018 (GMT -0700)
Van Nuys

Weather History for KVNY - May, 2013

Change the Weather History Date:

Tuesday, May 28, 2013

  Actual Average Record
Temperature  
Mean Temperature 72 °F -  
Max Temperature 88 °F 78 °F 100 °F (2003)
Min Temperature 59 °F 55 °F 48 °F (2008)
Cooling Degree Days 8    
Growing Degree Days 22 (Base 50)    
Moisture  
Dew Point 48 °F    
Average Humidity 47    
Maximum Humidity 83    
Minimum Humidity 25    
Precipitation  
Precipitation 0.00 in - - ()
Sea Level Pressure  
Sea Level Pressure 29.78 in    
Wind  
Wind Speed 7 mph (North)    
Max Wind Speed 21 mph    
Max Gust Speed 29 mph    
Visibility 10 miles    
Events      
Averages and records for this station are not official NWS values.
T = Trace of Precipitation, MM = Missing Value Source: NWS Daily Summary

Daily Weather History Graph

Daily Weather History Graph

Search for Another Location

Airport or City:

Astronomy

May. 28, 2013 Rise Set
Actual Time 5:44 AM PDT 7:58 PM PDT
Civil Twilight 5:15 AM PDT 8:27 PM PDT
Nautical Twilight 4:40 AM PDT 9:02 PM PDT
Astronomical Twilight 4:03 AM PDT 9:40 PM PDT
Moon 11:31 PM PDT (5/28) 9:34 AM PDT (5/28)
Length of Visible Light 15h 11m
Length of Day
14h 13m
Waning Gibbous, 82% of the Moon is Illuminated
May 28
Waning Gibbous
May 31
Last Quarter
Jun 8
New
Jun 16
First Quarter
Jun 23
Full

Hourly Weather History & Observations

Time (PDT) Temp. Dew Point Humidity Pressure Visibility Wind Dir Wind Speed Gust Speed Precip Events Conditions
12:51 AM 62.1 °F 53.1 °F 72% 29.86 in 10.0 mi ESE 5.8 mph - N/A   Clear
1:51 AM 61.0 °F 53.1 °F 75% 29.85 in 10.0 mi Calm Calm - N/A   Clear
2:51 AM 60.1 °F 53.1 °F 78% 29.83 in 10.0 mi ESE 3.5 mph - N/A   Clear
3:51 AM 60.1 °F 53.1 °F 78% 29.83 in 10.0 mi Calm Calm - N/A   Clear
4:51 AM 60.1 °F 54.0 °F 80% 29.82 in 10.0 mi ESE 6.9 mph - N/A   Clear
5:51 AM 59.0 °F 54.0 °F 83% 29.81 in 10.0 mi SE 4.6 mph - N/A   Clear
6:51 AM 60.1 °F 54.0 °F 80% 29.84 in 10.0 mi Calm Calm - N/A   Clear
7:51 AM 61.0 °F 54.0 °F 78% 29.83 in 10.0 mi Variable 3.5 mph - N/A   Clear
8:51 AM 64.9 °F 53.1 °F 65% 29.82 in 10.0 mi SW 8.1 mph - N/A   Clear
9:51 AM 73.0 °F 50.0 °F 44% 29.81 in 10.0 mi West 4.6 mph - N/A   Clear
10:28 AM 78.8 °F 48.2 °F 34% 29.82 in 10.0 mi NNW 10.4 mph 19.6 mph N/A   Clear
10:51 AM 80.1 °F 46.9 °F 31% 29.79 in 10.0 mi NNE 10.4 mph 16.1 mph N/A   Clear
11:51 AM 82.0 °F 48.0 °F 30% 29.79 in 10.0 mi North 15.0 mph 24.2 mph N/A   Clear
12:51 PM 82.9 °F 48.0 °F 29% 29.77 in 10.0 mi North 17.3 mph 27.6 mph N/A   Clear
1:51 PM 84.9 °F 48.0 °F 28% 29.75 in 10.0 mi NNE 17.3 mph 23.0 mph N/A   Clear
2:51 PM 84.9 °F 46.9 °F 27% 29.74 in 10.0 mi NNE 12.7 mph - N/A   Clear
3:51 PM 86.0 °F 46.9 °F 26% 29.73 in 10.0 mi NNW 16.1 mph 24.2 mph N/A   Clear
4:51 PM 84.9 °F 46.0 °F 26% 29.73 in 10.0 mi North 18.4 mph 24.2 mph N/A   Clear
5:51 PM 82.9 °F 44.1 °F 25% 29.72 in 10.0 mi North 19.6 mph 25.3 mph N/A   Clear
6:51 PM 81.0 °F 43.0 °F 26% 29.71 in 10.0 mi NNW 16.1 mph 23.0 mph N/A   Clear
7:51 PM 79.0 °F 43.0 °F 28% 29.71 in 10.0 mi NNW 10.4 mph - N/A   Clear
8:51 PM 78.1 °F 42.1 °F 28% 29.73 in 10.0 mi NNW 3.5 mph - N/A   Clear
9:51 PM 75.0 °F 45.0 °F 34% 29.73 in 10.0 mi NNE 3.5 mph - N/A   Clear
10:51 PM 75.0 °F 41.0 °F 29% 29.74 in 10.0 mi North 12.7 mph 20.7 mph N/A   Clear
11:51 PM 75.0 °F 41.0 °F 29% 29.74 in 10.0 mi North 20.7 mph 28.8 mph N/A   Clear